Change the Weather History Date:

Friday, March 14, 2014

  Actual Average (KLEX) Record (KLEX)
Temperature  
Mean Temperature 46 °F 45 °F  
Max Temperature 60 °F 55 °F 81 °F (1973)
Min Temperature 32 °F 35 °F 12 °F (1960)
Degree Days  
Heating Degree Days 19 20  
Month to date heating degree days 310  
Since 1 July heating degree days 3881  
Cooling Degree Days 0 0  
Month to date cooling degree days 0  
Year to date cooling degree days 0  
Moisture  
Dew Point 28 °F    
Average Humidity 48    
Maximum Humidity 69    
Minimum Humidity 34    
Precipitation  
Precipitation 0.00 in 0.14 in 1.43 in (1933)
Month to date precipitation 1.78  
Year to date precipitation 8.18  
Snow  
Snow 0.00 in 0.10 in 2.50 in (1940)
Month to date snowfall 0.8  
Since 1 July snowfall 12.1  
Snow Depth -    
Sea Level Pressure  
Sea Level Pressure 30.05 in    
Wind  
Wind Speed 11 mph (SW)    
Max Wind Speed 24 mph    
Max Gust Speed 37 mph    
Visibility 10 miles    
Events      
T = Trace of Precipitation, MM = Missing Value Source: NWS Daily Summary

Daily Weather History Graph

Daily Weather History Graph

Search for Another Location

Airport or City:

Trip Planner

Search our weather history database for the weather conditions in past years. The results will help you decide how hot, cold, wet, or windy it might be!

Date:

Astronomy

Mar. 14, 2014 Rise Set
Actual Time 7:51 AM EDT 7:45 PM EDT
Civil Twilight 7:25 AM EDT 8:11 PM EDT
Nautical Twilight 6:55 AM EDT 8:41 PM EDT
Astronomical Twilight 6:24 AM EDT 9:12 PM EDT
Moon 6:08 PM EDT (3/14) 6:29 AM EDT (3/14)
Length of Visible Light 12h 45m
Length of Day
11h 53m
Waxing Gibbous, 96% of the Moon is Illuminated
Mar 14
Waxing Gibbous
Mar 16
Full
Mar 23
Last Quarter
Mar 30
New
Apr 7
First Quarter

Hourly Weather History & Observations

Time (EDT) Temp. Windchill Dew Point Humidity Pressure Visibility Wind Dir Wind Speed Gust Speed Precip Events Conditions
12:15 AM 32.0 °F 27.5 °F 19.4 °F 60% 30.16 in 10.0 mi SW 4.6 mph - N/A   Clear
12:35 AM 32.0 °F 26.4 °F 19.4 °F 60% 30.16 in 10.0 mi SSW 5.8 mph - N/A   Clear
12:55 AM 32.0 °F 26.4 °F 19.4 °F 60% 30.15 in 10.0 mi SSW 5.8 mph - N/A   Clear
1:15 AM 32.0 °F 24.8 °F 21.2 °F 64% 30.14 in 10.0 mi SSW 8.1 mph - N/A   Clear
1:35 AM 32.0 °F 24.2 °F 19.4 °F 60% 30.14 in 10.0 mi SSW 9.2 mph - N/A   Clear
1:55 AM 32.0 °F 24.2 °F 19.4 °F 60% 30.14 in 10.0 mi SSW 9.2 mph - N/A   Clear
2:15 AM 32.0 °F 23.0 °F 19.4 °F 60% 30.14 in 10.0 mi SSW 11.5 mph - N/A   Clear
2:35 AM 32.0 °F 24.8 °F 19.4 °F 60% 30.14 in 10.0 mi SSW 8.1 mph - N/A   Clear
2:55 AM 32.0 °F 26.4 °F 19.4 °F 60% 30.14 in 10.0 mi SSW 5.8 mph - N/A   Clear
3:15 AM 33.8 °F 28.6 °F 19.4 °F 56% 30.14 in 10.0 mi SSW 5.8 mph - N/A   Clear
3:35 AM 33.8 °F 28.6 °F 19.4 °F 56% 30.13 in 10.0 mi SSW 5.8 mph - N/A   Clear
3:55 AM 33.8 °F 27.0 °F 19.4 °F 56% 30.12 in 10.0 mi SSW 8.1 mph - N/A   Clear
4:15 AM 32.0 °F 24.8 °F 21.2 °F 64% 30.12 in 10.0 mi SSW 8.1 mph - N/A   Clear
4:35 AM 33.8 °F 27.0 °F 21.2 °F 60% 30.12 in 10.0 mi SSW 8.1 mph - N/A   Clear
4:55 AM 32.0 °F 24.2 °F 21.2 °F 64% 30.12 in 10.0 mi SSW 9.2 mph - N/A   Clear
5:15 AM 32.0 °F 23.0 °F 21.2 °F 64% 30.12 in 10.0 mi SSW 11.5 mph - N/A   Clear
5:35 AM 32.0 °F 23.6 °F 21.2 °F 64% 30.11 in 10.0 mi SSW 10.4 mph - N/A   Clear
5:55 AM 32.0 °F 23.6 °F 21.2 °F 64% 30.11 in 10.0 mi SSW 10.4 mph - N/A   Clear
6:15 AM 32.0 °F 24.8 °F 23.0 °F 69% 30.11 in 10.0 mi SSW 8.1 mph - N/A   Clear
6:35 AM 33.8 °F 25.8 °F 23.0 °F 65% 30.10 in 10.0 mi SW 10.4 mph - N/A   Clear
6:55 AM 35.6 °F 27.1 °F 23.0 °F 60% 30.10 in 10.0 mi SW 12.7 mph - N/A   Clear
7:15 AM 35.6 °F 27.1 °F 23.0 °F 60% 30.11 in 10.0 mi SW 12.7 mph - N/A   Clear
7:35 AM 35.6 °F 27.5 °F 23.0 °F 60% 30.11 in 10.0 mi SW 11.5 mph - N/A   Clear
7:55 AM 35.6 °F 27.1 °F 23.0 °F 60% 30.11 in 10.0 mi SW 12.7 mph - N/A   Clear
8:15 AM 37.4 °F 28.9 °F 24.8 °F 60% 30.11 in 10.0 mi SW 13.8 mph - N/A   Clear
8:35 AM 37.4 °F 30.3 °F 24.8 °F 60% 30.12 in 10.0 mi SW 10.4 mph - N/A   Clear
8:55 AM 37.4 °F 32.1 °F 26.6 °F 65% 30.12 in 10.0 mi SSW 6.9 mph - N/A   Clear
9:15 AM 39.2 °F 32.5 °F 26.6 °F 61% 30.12 in 10.0 mi SW 10.4 mph - N/A   Clear
9:35 AM 42.8 °F 36.2 °F 28.4 °F 57% 30.13 in 10.0 mi SW 12.7 mph - N/A   Clear
9:55 AM 44.6 °F 37.4 °F 28.4 °F 53% 30.12 in 10.0 mi SW 16.1 mph 24.2 mph N/A   Clear
10:15 AM 46.4 °F 40.1 °F 28.4 °F 50% 30.12 in 10.0 mi SW 15.0 mph 25.3 mph N/A   Clear
10:35 AM 48.2 °F - 30.2 °F 50% 30.12 in 10.0 mi SW 16.1 mph 21.9 mph N/A   Clear
10:55 AM 50.0 °F - 30.2 °F 47% 30.11 in 10.0 mi SW 17.3 mph 21.9 mph N/A   Clear
11:15 AM 51.8 °F - 32.0 °F 47% 30.11 in 10.0 mi SW 18.4 mph 25.3 mph N/A   Clear
11:35 AM 53.6 °F - 32.0 °F 44% 30.10 in 10.0 mi SW 18.4 mph 29.9 mph N/A   Clear
11:55 AM 55.4 °F - 32.0 °F 41% 30.10 in 10.0 mi SW 23.0 mph 31.1 mph N/A   Clear
12:15 PM 55.4 °F - 32.0 °F 41% 30.09 in 10.0 mi SW 18.4 mph 29.9 mph N/A   Clear
12:35 PM 57.2 °F - 32.0 °F 38% 30.08 in 10.0 mi WSW 16.1 mph 28.8 mph N/A   Clear
12:55 PM 59.0 °F - 32.0 °F 36% 30.07 in 10.0 mi SW 18.4 mph 32.2 mph N/A   Clear
1:15 PM 57.2 °F - 32.0 °F 38% 30.06 in 10.0 mi SW 18.4 mph 25.3 mph N/A   Clear
1:35 PM 57.2 °F - 32.0 °F 38% 30.04 in 10.0 mi SSW 19.6 mph 28.8 mph N/A   Clear
1:55 PM 59.0 °F - 32.0 °F 36% 30.02 in 10.0 mi SW 20.7 mph 27.6 mph N/A   Clear
2:15 PM 59.0 °F - 32.0 °F 36% 30.02 in 10.0 mi SW 16.1 mph 28.8 mph N/A   Clear
2:35 PM 60.8 °F - 32.0 °F 34% 30.00 in 10.0 mi SW 21.9 mph 32.2 mph N/A   Clear
2:55 PM 60.8 °F - 32.0 °F 34% 30.00 in 10.0 mi SW 21.9 mph 28.8 mph N/A   Clear
3:15 PM 59.0 °F - 32.0 °F 36% 29.99 in 10.0 mi SW 16.1 mph 26.5 mph N/A   Clear
3:35 PM 59.0 °F - 32.0 °F 36% 29.96 in 10.0 mi SSW 15.0 mph 29.9 mph N/A   Clear
3:55 PM 60.8 °F - 32.0 °F 34% 29.95 in 10.0 mi SSW 21.9 mph 27.6 mph N/A   Clear
4:15 PM 59.0 °F - 30.2 °F 34% 29.95 in 10.0 mi SW 15.0 mph 25.3 mph N/A   Clear
4:35 PM 59.0 °F - 30.2 °F 34% 29.94 in 10.0 mi SW 15.0 mph 24.2 mph N/A   Clear
4:55 PM 59.0 °F - 32.0 °F 36% 29.94 in 10.0 mi WSW 17.3 mph 26.5 mph N/A   Clear
5:15 PM 59.0 °F - 30.2 °F 34% 29.93 in 10.0 mi WSW 19.6 mph 28.8 mph N/A   Scattered Clouds
5:35 PM 59.0 °F - 30.2 °F 34% 29.92 in 10.0 mi SW 24.2 mph 36.8 mph N/A   Scattered Clouds
5:55 PM 59.0 °F - 32.0 °F 36% 29.92 in 10.0 mi SW 19.6 mph 26.5 mph N/A   Scattered Clouds
6:15 PM 59.0 °F - 32.0 °F 36% 29.93 in 10.0 mi SW 20.7 mph 25.3 mph N/A   Scattered Clouds
6:35 PM 59.0 °F - 32.0 °F 36% 29.93 in 10.0 mi WSW 20.7 mph 28.8 mph N/A   Scattered Clouds
6:55 PM 57.2 °F - 32.0 °F 38% 29.93 in 10.0 mi WSW 21.9 mph 32.2 mph N/A   Mostly Cloudy
7:15 PM 57.2 °F - 32.0 °F 38% 29.93 in 10.0 mi WSW 16.1 mph 26.5 mph N/A   Overcast
7:35 PM 57.2 °F - 32.0 °F 38% 29.93 in 10.0 mi SW 15.0 mph 27.6 mph N/A   Overcast
7:55 PM 55.4 °F - 32.0 °F 41% 29.93 in 10.0 mi SW 13.8 mph - N/A   Overcast
8:15 PM 55.4 °F - 32.0 °F 41% 29.93 in 10.0 mi SW 13.8 mph 18.4 mph N/A   Mostly Cloudy
8:35 PM 55.4 °F - 32.0 °F 41% 29.94 in 10.0 mi SW 12.7 mph 23.0 mph N/A   Mostly Cloudy
8:55 PM 55.4 °F - 32.0 °F 41% 29.95 in 10.0 mi WSW 12.7 mph 23.0 mph N/A   Overcast
9:15 PM 55.4 °F - 32.0 °F 41% 29.94 in 10.0 mi WSW 13.8 mph 25.3 mph N/A   Overcast
9:35 PM 55.4 °F - 32.0 °F 41% 29.95 in 10.0 mi WSW 13.8 mph 19.6 mph N/A   Overcast
9:55 PM 55.4 °F - 32.0 °F 41% 29.96 in 10.0 mi WSW 13.8 mph 21.9 mph N/A   Overcast
10:15 PM 55.4 °F - 32.0 °F 41% 29.97 in 10.0 mi SW 12.7 mph 17.3 mph N/A   Overcast
10:35 PM 55.4 °F - 32.0 °F 41% 29.97 in 10.0 mi WSW 20.7 mph 33.4 mph N/A   Overcast
10:55 PM 55.4 °F - 32.0 °F 41% 29.98 in 10.0 mi West 16.1 mph 28.8 mph N/A   Overcast
11:15 PM 55.4 °F - 32.0 °F 41% 29.98 in 10.0 mi West 10.4 mph 25.3 mph N/A   Overcast
11:35 PM 53.6 °F - 32.0 °F 44% 29.98 in 10.0 mi WSW 16.1 mph 26.5 mph N/A   Overcast
11:55 PM 53.6 °F - 32.0 °F 44% 29.99 in 10.0 mi West 18.4 mph 25.3 mph N/A   Mostly Cloudy